Location: *
(41.7492°S, 135.4150°W)
Time: 21:13:07
(UTC+00:00)

Max Valier Satellite - Visible Passes

Search period start: 28 June 2022 00:00
Search period end: 08 July 2022 00:00
Orbit: 478 x 490 km, 97.2° (Epoch: 28 June)

Date Brightness Start Highest point End Pass type
(mag) Time Alt. Az. Time Alt. Az. Time Alt. Az.
30 Jun ? 15:56:28 10° ENE 15:59:11 20° ESE 16:01:55 10° SSE visible
01 Jul ? 15:33:57 10° E 15:34:56 11° ESE 15:35:54 10° SE visible
04 Jul ? 15:52:06 10° ENE 15:54:38 18° ESE 15:57:10 10° SSE visible
